sat.trackr.live / text

‹ back to catalog

KUIPER-00221

NORAD 67147 · 2025-301Q

PAYLOAD ACTIVE UNKNOWN

§ Identity

Operator
Country
US
Launch date
2025-12-16
Launch site
AFETR
Launch vehicle
Mass (kg)
RCS (m²)

External: N2YO · Heavens-Above · Gunter

§ Orbital elements

Epoch: 2026-09-19T10:04:21.957312Z

Period
97.30 min
Inclination
51.9025°
Eccentricity
0.0000615
Mean motion
14.79935296 rev/d
Perigee alt
629.1 km
Apogee alt
630.0 km
Semi-major
7,007.7 km
B*
1.5927e-4
RAAN
303.9611°
Arg perigee
68.4031°
Mean anomaly
291.6997°
Rev number
4,221

§ Raw data

KUIPER-002211 67147U 25301Q   26262.41969858  .00000993  00000+0  15927-3 0  99912 67147  51.9025 303.9611 0000615  68.4031 291.6997 14.79935296 42213

JSON: /api/v1/satellites/67147 · /tle

For live sub-satellite position, see the globe view (requires WebGL).

§ Visibility from observer

Set your observer location to see the next 7 days of passes ≥ 10°. The values pass through the URL so the page stays shareable.

No JS? Fill the form by hand. The geolocation button needs JavaScript.